SCOUT X-4 DEB, 724

Orbit data source: Space-Track

SCOUT X-4 DEB, 724 is space debris in LEO originally from a launch on Thu, 19 Dec 1963 UTC launched from the Air Force Western Test Range (AFWTR). Debris objects in space refer to the collection of defunct objects orbiting the Earth. Examples of debris include non-operational satellites, rocket bodies, and fragments generated from explosions, collisions, or faulty payload assembly.

Loading next visibility...
SCOUT X-4 DEB details
Identifier
724, 1963-053E
Orbit
LEO
Last TLE update9 hours ago
Origin
Flag of USNASA LaRC (US)
ManufacturerUnknown
MissionSpacecraft
Bus & MotorUnknown
MassUnknown
Launch date (UTC)
1963-12-19 (61 years ago)
Launch vehicleUnknown
Launch site
Air Force Western Test Range (AFWTR)
Object type
Payload
Rocket body
Debris
Shape & HBRUnknown
Radar Cross SectionSmall (<0.1 m²)

Expand to show TLE details & history

TLE from 9 hours ago
0 SCOUT X-4 DEB
1   724U 63053E   25047.68613846  .00248898  00000-0  17526-1 0  9991
2   724  78.5562  36.2231 0127253 343.1794  16.5210 14.97568507967555
Epoch: 2025-02-16T16:28Z
Definitive object data (Epoch: 2025-02-16T16:28:02.362Z)
Latitude-0.00007°
Longitude2.29761°
Altitude492.583 km
Speed7.665 km/s
True Right ascension02h 24m 53s
True Declination0° 00' 00"
Sunlit
Object was in daylight at TLE epoch
Visualization TLE readout
Latitude-76.88155°
Longitude-118.50584°
Altitude582.857 km
Speed7.578 km/s
Apparent Right ascension16h 55m 47s
Apparent Declination-59° 39' 20"
Sunlit
Object is in daylight
Visualization observer readout
Local Sidereal Time04:28:35
Azimuth189.977° SSW
Elevation-69.803°
Doppler factor1
Orbital elements
Apogee altitude660.061 km
Perigee altitude483.185 km
Semi-major axis6,949.76 km
Eccentricity0.0127253
Inclination78.5562°
RAAN36.2231°
Arg. of periapsis343.1794°
True anomaly16.94208°
Mean anomaly16.521°
Eccentric anomaly16.73089°
Mean motion3.74618 °/min
BSTAR0.017526
Orbital period96.1 mins
Loading maneuver chart data...
Loading historical data...
Loading historical data...
Loading historical data...
Loading historical data...
Loading historical data...
Loading historical data...
Loading historical data...

SCOUT X-4 DEB Visibility forecast

Observer location: undefined°, undefined

Span
Click to sort rows by Start time (UTC) header in descending order
Start Az.
Max El. time (UTC)
Max El. Az.
Max El.
End time (UTC)
End Az.
8 mins2025-02-17 10:38:53.827Z351.24° N2025-02-17 10:42:53.827Z39.119° NE43.28°2025-02-17 10:46:53.827Z160.849° S
5 mins2025-02-18 00:40:53.827Z240.774° WSW2025-02-18 00:42:53.827Z285.797° WNW25.764°2025-02-18 00:45:53.827Z345.807° N
|